[[{"header":{"parameterUnit":"m.s-1","parameterCategory":1,"la1":30.2991,"la2":30.254,"lo1":-89.0895,"lo2":-89.0444,"dx":0.0017,"dy":0.0017,"nx":28,"ny":28,"refTime":"2022-11-07T03:00:00:Z","depth":0,"parameterNumber":2,"parameterNumberName":"U-component_of_WINDS"},"data":[0,0,0,0,0,0,0,0,0,0,0,0,0,0,0,0,0,0,0,0,0,0,0,0,0,0,0,0,0,0,0,0,0,0,0,0,0,0,0,0,0,0,0,0,0,0,0,0,0,0,0,0,0,0,0,0,0,0,-1.1742,-1.1743,0,-1.1852,-1.1853,-1.1854,-1.1967,-1.1969,-1.197,-1.1972,-1.2082,-1.2084,-1.2085,0,0,0,0,0,0,0,0,0,0,0,0,0,-1.163,-1.1631,-1.1742,-1.1744,-1.1745,-1.1852,-1.1853,-1.1855,-1.1967,-1.1969,-1.1971,-1.1973,-1.2082,-1.2084,-1.2085,0,0,0,0,0,0,0,0,0,0,0,0,0,-1.1703,-1.1632,-1.1742,-1.1814,-1.1822,-1.1851,-1.1853,-1.1855,-1.1967,-1.1969,-1.1971,-1.1974,-1.2081,-1.2083,-1.2086,-1.2053,0,0,-1.2092,-1.2093,0,0,0,0,0,0,0,0,-1.1698,-1.1707,-1.1802,-1.1809,-1.1818,-1.1898,-1.1854,-1.1921,-1.1966,-1.1911,-1.1972,-1.1975,-1.2019,-1.2027,-1.2042,-1.2058,-1.2063,-1.2093,-1.2094,-1.2095,-1.2096,0,0,0,0,0,0,0,-1.1693,-1.1703,-1.1786,-1.1803,-1.1813,-1.1841,-1.1854,-1.1867,-1.1951,-1.1916,-1.1925,-1.1936,-1.2024,-1.204,-1.2045,-1.2064,-1.2093,-1.2095,-1.2096,-1.2097,-1.2059,-1.2057,0,0,0,0,0,0,-1.1677,-1.1698,-1.1782,-1.1789,-1.1763,-1.1841,-1.1855,-1.187,-1.1951,-1.1966,-1.1934,-1.1941,-1.2035,-1.2043,-1.205,-1.2016,-1.2095,-1.2097,-1.2098,-1.2061,-1.2059,-1.2056,0,0,0,0,0,0,-1.1675,-1.1684,-1.1778,-1.1746,-1.176,-1.184,-1.1856,-1.1871,-1.1887,-1.1965,-1.198,-1.1935,-1.2037,-1.2047,-1.2051,-1.2021,-1.2098,-1.21,-1.2064,-1.206,-1.2057,-1.1948,0,0,0,0,0,0,-1.1671,-1.1682,-1.167,-1.1745,-1.1761,-1.1777,-1.1854,-1.1871,-1.189,-1.1901,-1.1969,-1.1983,-1.2039,-1.2047,-1.2053,-1.2026,-1.2102,-1.2067,-1.2063,-1.2058,-1.1955,-1.1941,-1.193,0,0,0,0,0,-1.1667,-1.1635,-1.1669,-1.1679,-1.1748,-1.1775,-1.1784,-1.185,-1.1888,-1.1876,-1.1927,-1.1981,-1.2024,-1.2047,-1.2055,-1.2027,-1.2069,-1.2064,-1.2059,-1.196,-1.1944,-1.193,0,0,0,0,0,0,-1.1554,-1.1646,-1.1685,-1.1676,-1.1717,-1.1794,-1.1782,-1.1831,-1.1862,-1.187,-1.195,-1.1965,-1.196,-1.1995,-1.2018,-1.2,-1.2054,-1.205,-1.1977,-1.1962,-1.195,-1.1941,-1.2104,0,0,0,0,0,-1.1528,-1.1543,-1.1623,-1.1607,-1.1626,-1.17,-1.1714,-1.1762,-1.1807,-1.1825,-1.1875,-1.1917,-1.194,-1.1953,-1.1979,-1.1961,-1.1978,-1.1947,-1.1934,-1.1924,-1.1918,-1.1911,-1.1898,-1.2039,-1.2039,-1.2039,0,0,-1.1475,-1.1527,-1.1531,-1.1586,-1.1623,-1.1636,-1.1714,-1.1724,-1.1734,-1.1826,-1.1833,-1.1872,-1.1924,-1.1917,-1.1917,-1.1946,-1.1884,-1.1917,-1.1908,-1.1909,-1.1905,-1.1891,-1.1879,-1.2035,-1.2036,-1.2036,0,0,-1.1384,-1.1426,-1.1417,-1.1453,-1.1509,-1.1559,-1.1557,-1.1627,-1.1656,-1.1666,-1.1735,-1.1749,-1.1787,-1.1821,-1.1843,-1.1767,-1.1818,-1.1774,-1.1707,-1.17,-1.1689,-1.1679,-1.1651,-1.164,-1.1769,-1.1768,-1.1768,0,-1.131,-1.1333,-1.1407,-1.1413,-1.1435,-1.152,-1.1512,-1.1544,-1.1604,-1.1617,-1.165,-1.17,-1.1741,-1.1743,-1.1725,-1.1741,-1.174,-1.1765,-1.1685,-1.1676,-1.1668,-1.1642,-1.1631,-1.1763,-1.1763,-1.1764,-1.1764,0,-1.1239,-1.1254,-1.1241,-1.1298,-1.1319,-1.1318,-1.1391,-1.1404,-1.145,-1.1496,-1.1505,-1.1557,-1.1595,-1.16,-1.1645,-1.1608,-1.1625,-1.167,-1.1726,-1.1647,-1.1624,-1.1615,-1.1754,-1.1756,-1.1758,-1.1759,0,0,-1.1078,-1.1178,-1.1171,-1.1198,-1.1267,-1.128,-1.1283,-1.1321,-1.133,-1.137,-1.1374,-1.1405,-1.1448,-1.1473,-1.1523,-1.1516,-1.1452,-1.1563,-1.1565,-1.1539,-1.1414,-1.1378,-1.1365,-1.1487,-1.1486,-1.1484,-1.1409,0,-1.0998,-1.1009,-1.1076,-1.1067,-1.1081,-1.1164,-1.1167,-1.1209,-1.1253,-1.1272,-1.1321,-1.1341,-1.1396,-1.1412,-1.1409,-1.146,-1.1428,-1.1467,-1.1491,-1.1491,-1.1473,-1.1354,-1.1316,-1.1242,-1.1401,-1.1399,-1.1398,0,-1.0905,-1.0939,-1.0932,-1.1002,-1.101,-1.1011,-1.1052,-1.1069,-1.1119,-1.1152,-1.118,-1.1237,-1.1246,-1.13,-1.1312,-1.1337,-1.1352,-1.1378,-1.1377,-1.138,-1.1438,-1.1351,-1.122,-1.1208,-1.1385,-1.1386,-1.1387,0,-1.0786,-1.0831,-1.0833,-1.0854,-1.0935,-1.0934,-1.0968,-1.1021,-1.1039,-1.1075,-1.1088,-1.1123,-1.1142,-1.1169,-1.1234,-1.1268,-1.1239,-1.1298,-1.1265,-1.1263,-1.1253,-1.1252,-1.112,-1.1265,-1.1265,-1.1266,-1.1266,0,-1.0687,-1.0679,-1.078,-1.0781,-1.0774,-1.0852,-1.0844,-1.0886,-1.0932,-1.0942,-1.1017,-1.1024,-1.1111,-1.1129,-1.118,-1.1182,-1.1191,-1.1217,-1.123,-1.1209,-1.1205,-1.1217,-1.1223,-1.1263,-1.1263,-1.1264,-1.1264,0,-1.0552,-1.062,-1.0627,-1.0704,-1.0723,-1.0715,-1.0781,-1.0785,-1.0834,-1.0846,-1.0854,-1.0931,-1.0956,-1.1025,-1.1067,-1.1102,-1.1088,-1.1115,-1.1071,-1.1079,-1.1041,-1.1043,-1.0911,-1.0897,-1.1052,-1.105,-1.1049,0,-1.0484,-1.048,-1.0557,-1.0569,-1.06,-1.0619,-1.0639,-1.0716,-1.0734,-1.0792,-1.0788,-1.0819,-1.0848,-1.0884,-1.0944,-1.0977,-1.1004,-1.0955,-1.1009,-1.0988,-1.1001,-1.0999,-1.0999,-1.0942,-1.094,-1.0938,-1.0937,0,-1.0355,-1.0389,-1.0415,-1.0452,-1.0474,-1.0507,-1.0545,-1.0551,-1.0638,-1.0653,-1.068,-1.0703,-1.0747,-1.0776,-1.0819,-1.0855,-1.0909,-1.092,-1.0914,-1.0891,-1.0865,-1.0877,-1.1037,-1.0922,-1.0924,-1.0925,-1.0926,-1.0926,-1.025,-1.025,-1.0305,-1.0331,-1.0368,-1.0402,-1.0409,-1.046,-1.0484,-1.0526,-1.0571,-1.0592,-1.0644,-1.0707,-1.0739,-1.0757,-1.0786,-1.0777,-1.0775,-1.0771,-1.076,-1.0864,-1.0765,-1.0766,-1.0766,-1.0767,-1.0767,0,-1.0124,-1.0163,-1.0187,-1.0238,-1.0258,-1.0311,-1.0355,-1.0369,-1.0387,-1.0431,-1.0458,-1.0489,-1.0519,-1.0582,-1.0617,-1.062,-1.0646,-1.0626,-1.0626,-1.0633,-1.0733,-1.0734,-1.0604,-1.0604,-1.0604,-1.0605,-1.0605,-1.0605,-1.006,-1.0063,-1.0104,-1.0126,-1.0166,-1.0188,-1.0209,-1.024,-1.0276,-1.0307,-1.0332,-1.0374,-1.0425,-1.0465,-1.0495,-1.0513,-1.0522,-1.0493,-1.0519,-1.061,-1.0626,-1.064,-1.0642,-1.0495,-1.0495,-1.0417,-1.0416,-1.0416]},{"header":{"parameterUnit":"m.s-1","parameterCategory":1,"la1":30.2991,"la2":30.254,"lo1":-89.0895,"lo2":-89.0444,"dx":0.0017,"dy":0.0017,"nx":28,"ny":28,"refTime":"2022-11-07T03:00:00:Z","depth":0,"parameterNumber":3,"parameterNumberName":"V-component_of_WINDS"},"data":[0,0,0,0,0,0,0,0,0,0,0,0,0,0,0,0,0,0,0,0,0,0,0,0,0,0,0,0,0,0,0,0,0,0,0,0,0,0,0,0,0,0,0,0,0,0,0,0,0,0,0,0,0,0,0,0,0,0,-2.598,-2.5981,0,-2.603,-2.603,-2.6031,-2.604,-2.6039,-2.6039,-2.6039,-2.6086,-2.6088,-2.6089,0,0,0,0,0,0,0,0,0,0,0,0,0,-2.5891,-2.5893,-2.598,-2.5981,-2.5981,-2.603,-2.603,-2.6031,-2.604,-2.6039,-2.6039,-2.6039,-2.6085,-2.6087,-2.6089,0,0,0,0,0,0,0,0,0,0,0,0,0,-2.5934,-2.5893,-2.598,-2.5992,-2.5993,-2.6029,-2.603,-2.6031,-2.604,-2.6039,-2.6039,-2.6038,-2.6085,-2.6087,-2.609,-2.6116,0,0,-2.6097,-2.6098,0,0,0,0,0,0,0,0,-2.5932,-2.5937,-2.5989,-2.5991,-2.5993,-2.6028,-2.6016,-2.606,-2.604,-2.6022,-2.6039,-2.6038,-2.6067,-2.6071,-2.6081,-2.6119,-2.6121,-2.6097,-2.6099,-2.61,-2.61,0,0,0,0,0,0,0,-2.5929,-2.5935,-2.5999,-2.599,-2.5992,-2.5994,-2.5999,-2.6025,-2.6047,-2.6024,-2.6024,-2.603,-2.6068,-2.6079,-2.6082,-2.6121,-2.6097,-2.6099,-2.6101,-2.6102,-2.6185,-2.6186,0,0,0,0,0,0,-2.5924,-2.5933,-2.5998,-2.6001,-2.596,-2.5996,-2.6002,-2.6017,-2.6047,-2.6051,-2.6031,-2.6031,-2.6075,-2.608,-2.6084,-2.6119,-2.61,-2.6102,-2.6103,-2.6185,-2.6186,-2.6186,0,0,0,0,0,0,-2.5922,-2.593,-2.5996,-2.5967,-2.5976,-2.5998,-2.6015,-2.6019,-2.603,-2.6052,-2.6056,-2.6038,-2.6075,-2.6081,-2.6109,-2.6121,-2.6103,-2.6105,-2.6184,-2.6185,-2.6186,-2.6188,0,0,0,0,0,0,-2.592,-2.5929,-2.594,-2.5967,-2.5977,-2.6021,-2.6016,-2.602,-2.6034,-2.6035,-2.606,-2.6064,-2.6075,-2.6105,-2.6111,-2.6124,-2.6107,-2.6183,-2.6184,-2.6186,-2.6187,-2.6189,-2.6191,0,0,0,0,0,-2.5916,-2.5937,-2.594,-2.5948,-2.5991,-2.6021,-2.6027,-2.604,-2.6035,-2.6046,-2.6061,-2.6063,-2.6119,-2.6108,-2.6115,-2.6128,-2.6182,-2.6184,-2.6185,-2.6186,-2.6189,-2.6191,0,0,0,0,0,0,-2.5908,-2.5941,-2.5945,-2.5975,-2.5996,-2.6023,-2.6037,-2.6042,-2.6063,-2.6062,-2.6076,-2.6082,-2.611,-2.6122,-2.611,-2.6157,-2.615,-2.6153,-2.6148,-2.6151,-2.6153,-2.6149,-2.6109,0,0,0,0,0,-2.591,-2.5933,-2.596,-2.5984,-2.5994,-2.6014,-2.6027,-2.6036,-2.6057,-2.6065,-2.6082,-2.6102,-2.6124,-2.6138,-2.6159,-2.6189,-2.6195,-2.6202,-2.6204,-2.6205,-2.6208,-2.6226,-2.623,-2.6192,-2.6192,-2.6192,0,0,-2.5914,-2.5935,-2.5947,-2.5983,-2.6,-2.6022,-2.6021,-2.6044,-2.6061,-2.6068,-2.6097,-2.611,-2.6133,-2.6163,-2.6177,-2.6174,-2.622,-2.6207,-2.6208,-2.621,-2.6228,-2.6232,-2.6235,-2.6193,-2.6193,-2.6193,0,0,-2.5933,-2.595,-2.5974,-2.5991,-2.6018,-2.6031,-2.6037,-2.6064,-2.6073,-2.6103,-2.6109,-2.6129,-2.6166,-2.6183,-2.6197,-2.6225,-2.6228,-2.6231,-2.6241,-2.6259,-2.6262,-2.6265,-2.6276,-2.628,-2.6234,-2.6234,-2.6234,0,-2.5934,-2.5969,-2.5984,-2.6009,-2.6024,-2.6034,-2.6058,-2.6074,-2.6105,-2.6116,-2.6112,-2.6161,-2.6177,-2.6212,-2.6219,-2.6229,-2.6236,-2.6228,-2.6261,-2.6264,-2.6267,-2.6278,-2.6282,-2.6234,-2.6234,-2.6234,-2.6234,0,-2.597,-2.5994,-2.601,-2.6042,-2.606,-2.6083,-2.6102,-2.6118,-2.6126,-2.6139,-2.617,-2.619,-2.6216,-2.6225,-2.6232,-2.6262,-2.6259,-2.6258,-2.6251,-2.627,-2.6281,-2.6285,-2.6234,-2.6234,-2.6234,-2.6234,0,0,-2.5983,-2.6026,-2.6032,-2.6048,-2.6078,-2.6097,-2.6122,-2.615,-2.6164,-2.6185,-2.6207,-2.6239,-2.624,-2.6255,-2.6264,-2.6279,-2.6302,-2.6277,-2.6277,-2.6282,-2.6338,-2.634,-2.6344,-2.6305,-2.6306,-2.6306,-2.6337,0,-2.6007,-2.6052,-2.6068,-2.6106,-2.6129,-2.614,-2.6162,-2.6183,-2.6197,-2.6218,-2.6233,-2.6257,-2.6254,-2.6264,-2.628,-2.6296,-2.6314,-2.6294,-2.6325,-2.6326,-2.632,-2.635,-2.6351,-2.6378,-2.6341,-2.6342,-2.6342,0,-2.6039,-2.6064,-2.6105,-2.6136,-2.6146,-2.6165,-2.6193,-2.6214,-2.6239,-2.6248,-2.6266,-2.6275,-2.6301,-2.6293,-2.633,-2.6316,-2.633,-2.634,-2.6341,-2.6345,-2.6336,-2.6355,-2.6387,-2.6392,-2.6349,-2.6348,-2.6348,0,-2.6047,-2.609,-2.6121,-2.6134,-2.617,-2.6184,-2.6199,-2.6223,-2.624,-2.6264,-2.6275,-2.6301,-2.6315,-2.6336,-2.6351,-2.6343,-2.6387,-2.638,-2.6396,-2.6396,-2.6405,-2.6404,-2.644,-2.6412,-2.6412,-2.6412,-2.6412,0,-2.6072,-2.6096,-2.6125,-2.6144,-2.6173,-2.619,-2.6218,-2.6234,-2.6256,-2.6278,-2.6288,-2.6308,-2.6327,-2.635,-2.6362,-2.6392,-2.6397,-2.6406,-2.6409,-2.6406,-2.6405,-2.6415,-2.6414,-2.6413,-2.6413,-2.6413,-2.6412,0,-2.6084,-2.6105,-2.6139,-2.6171,-2.618,-2.62,-2.6227,-2.6246,-2.6261,-2.6289,-2.6297,-2.632,-2.6348,-2.6366,-2.64,-2.6408,-2.6442,-2.6443,-2.6434,-2.6435,-2.6451,-2.645,-2.6496,-2.6504,-2.6469,-2.6469,-2.647,0,-2.6099,-2.6119,-2.6154,-2.6171,-2.6187,-2.6213,-2.6231,-2.6249,-2.6267,-2.6299,-2.6314,-2.6343,-2.6367,-2.6411,-2.643,-2.6458,-2.6461,-2.6475,-2.6465,-2.6462,-2.6463,-2.6462,-2.6464,-2.6477,-2.6477,-2.6477,-2.6478,0,-2.6124,-2.6133,-2.6159,-2.619,-2.6211,-2.6235,-2.6259,-2.6272,-2.6295,-2.6314,-2.6344,-2.6363,-2.64,-2.6429,-2.6458,-2.6474,-2.648,-2.6481,-2.6486,-2.6483,-2.6478,-2.6483,-2.644,-2.648,-2.6479,-2.6479,-2.6479,-2.6479,-2.6139,-2.6158,-2.6186,-2.6216,-2.6236,-2.6259,-2.6279,-2.6298,-2.6324,-2.6357,-2.6366,-2.6397,-2.6423,-2.6464,-2.648,-2.6505,-2.6503,-2.651,-2.6512,-2.6514,-2.6515,-2.6473,-2.651,-2.651,-2.651,-2.651,-2.651,0,-2.6165,-2.6184,-2.6211,-2.6246,-2.6269,-2.6275,-2.6303,-2.6321,-2.6349,-2.6374,-2.6399,-2.6434,-2.6462,-2.6486,-2.6515,-2.6531,-2.6534,-2.6538,-2.6537,-2.6541,-2.6514,-2.6507,-2.6535,-2.6535,-2.6535,-2.6535,-2.6535,-2.6535,-2.6181,-2.6214,-2.6228,-2.6272,-2.6291,-2.6324,-2.6339,-2.6361,-2.6381,-2.642,-2.6445,-2.6461,-2.6485,-2.6517,-2.6544,-2.655,-2.6561,-2.6564,-2.6571,-2.6545,-2.6543,-2.654,-2.6534,-2.6566,-2.6566,-2.6596,-2.6596,-2.6596]}]]